Hilo, HI

2:50 PM HST on April 25, 2017 (GMT -1000)
Hilo International

Weather History for PHTO - August, 2014

Change the Weather History Date:

Friday, August 15, 2014

  Actual Average Record
Temperature  
Mean Temperature 77 °F 77 °F  
Max Temperature 84 °F 83 °F 93 °F (1950)
Min Temperature 70 °F 70 °F 65 °F (1964)
Degree Days  
Heating Degree Days 0 0  
Month to date heating degree days 0 0  
Since 1 June heating degree days 0 0  
Since 1 July heating degree days 0 0  
Cooling Degree Days 12 11  
Month to date cooling degree days 199 165  
Year to date cooling degree days 2067 1882  
Since 1 June cooling degree days 811 814  
Growing Degree Days 26 (Base 50)    
Moisture  
Dew Point 68 °F    
Average Humidity 75    
Maximum Humidity 87    
Minimum Humidity 63    
Precipitation  
Precipitation 0.01 in 0.32 in 5.10 in (1969)
Month to date precipitation 6.77 5.02  
Year to date precipitation 77.07 75.11  
Snow  
Snow 0.00 in - - ()
Month to date snowfall 0.0  
Since 1 June snowfall 0.0  
Since 1 July snowfall 0.0  
Snow Depth 0.00 in    
Sea Level Pressure  
Sea Level Pressure 29.99 in    
Wind  
Wind Speed 6 mph (NW)    
Max Wind Speed 16 mph    
Max Gust Speed 21 mph    
Visibility 10 miles    
Events Rain    
T = Trace of Precipitation, MM = Missing Value Source: NWS Daily Summary

Daily Weather History Graph

Daily Weather History Graph

Search for Another Location

Airport or City:

Trip Planner

Search our weather history database for the weather conditions in past years. The results will help you decide how hot, cold, wet, or windy it might be!

Date:

Astronomy

Aug. 15, 2014 Rise Set
Actual Time 6:00 AM HST 6:48 PM HST
Civil Twilight 5:37 AM HST 7:11 PM HST
Nautical Twilight 5:10 AM HST 7:38 PM HST
Astronomical Twilight 4:43 AM HST 8:05 PM HST
Moon 10:52 PM HST (8/15) 11:03 AM HST (8/15)
Length of Visible Light 13h 33m
Length of Day
12h 47m
Waning Gibbous, 67% of the Moon is Illuminated
Aug 15
Waning Gibbous
Aug 17
Last Quarter
Aug 25
New
Sep 2
First Quarter
Sep 8
Full

Hourly Weather History & Observations

Time (HST) Temp. Heat Index Dew Point Humidity Pressure Visibility Wind Dir Wind Speed Gust Speed Precip Events Conditions
12:53 AM 72.0 °F - 66.9 °F 84% 29.99 in 10.0 mi WSW 4.6 mph - 0.00 in   Overcast
1:17 AM 72.0 °F - 68.0 °F 87% 29.99 in 8.0 mi NNW 3.5 mph - 0.00 in Rain Light Rain
1:26 AM 72.0 °F - 68.0 °F 87% 29.98 in 9.0 mi West 3.5 mph - 0.00 in Rain Light Rain
1:53 AM 73.0 °F - 70.0 °F 90% 29.97 in 10.0 mi NW 6.9 mph - 0.01 in   Overcast
2:31 AM 73.0 °F - 68.0 °F 84% 29.97 in 10.0 mi WNW 8.1 mph - N/A   Overcast
2:53 AM 73.0 °F - 68.0 °F 84% 29.96 in 10.0 mi SSW 3.5 mph - N/A   Overcast
3:23 AM 72.0 °F - 66.9 °F 84% 29.97 in 10.0 mi WSW 3.5 mph - N/A   Overcast
3:53 AM 71.1 °F - 66.9 °F 87% 29.97 in 10.0 mi South 3.5 mph - N/A   Mostly Cloudy
4:53 AM 71.1 °F - 66.9 °F 87% 29.97 in 10.0 mi SW 5.8 mph - N/A   Mostly Cloudy
5:53 AM 71.1 °F - 66.0 °F 84% 29.98 in 10.0 mi WSW 4.6 mph - N/A   Mostly Cloudy
6:53 AM 71.1 °F - 66.0 °F 84% 29.99 in 10.0 mi SW 6.9 mph - 0.00 in   Mostly Cloudy
7:53 AM 75.0 °F - 68.0 °F 79% 30.00 in 10.0 mi WSW 4.6 mph - N/A   Overcast
8:53 AM 78.1 °F - 70.0 °F 76% 30.01 in 10.0 mi SSE 3.5 mph - N/A   Mostly Cloudy
9:53 AM 79.0 °F - 68.0 °F 69% 30.01 in 10.0 mi ENE 3.5 mph - N/A   Mostly Cloudy
10:53 AM 79.0 °F - 68.0 °F 69% 30.01 in 10.0 mi East 16.1 mph - N/A   Mostly Cloudy
11:53 AM 81.0 °F 83.8 °F 68.0 °F 65% 30.00 in 10.0 mi Variable 3.5 mph - N/A   Mostly Cloudy
12:53 PM 82.9 °F 85.8 °F 68.0 °F 60% 29.98 in 10.0 mi NNE 8.1 mph - N/A   Mostly Cloudy
1:53 PM 82.9 °F 86.5 °F 69.1 °F 63% 29.97 in 10.0 mi East 6.9 mph - N/A   Mostly Cloudy
2:53 PM 82.0 °F 84.9 °F 68.0 °F 62% 29.96 in 10.0 mi ENE 9.2 mph - N/A   Mostly Cloudy
3:53 PM 82.0 °F 84.5 °F 66.9 °F 60% 29.96 in 10.0 mi NE 9.2 mph - N/A   Mostly Cloudy
4:53 PM 82.0 °F 85.5 °F 69.1 °F 65% 29.96 in 10.0 mi ENE 9.2 mph - N/A   Overcast
5:53 PM 80.1 °F 82.7 °F 68.0 °F 67% 29.97 in 10.0 mi ENE 9.2 mph - N/A   Overcast
6:53 PM 79.0 °F - 66.9 °F 66% 29.99 in 10.0 mi ENE 6.9 mph - N/A   Overcast
7:53 PM 78.1 °F - 66.9 °F 68% 30.00 in 10.0 mi ENE 3.5 mph - N/A   Overcast
8:53 PM 78.1 °F - 69.1 °F 74% 30.01 in 10.0 mi ENE 4.6 mph - N/A   Overcast
9:53 PM 75.0 °F - 69.1 °F 82% 30.03 in 10.0 mi WSW 4.6 mph - N/A   Partly Cloudy
10:53 PM 75.0 °F - 71.1 °F 87% 30.03 in 10.0 mi Variable 3.5 mph - 0.06 in Rain Light Rain
11:53 PM 73.9 °F - 70.0 °F 87% 30.01 in 10.0 mi West 8.1 mph - 0.00 in   Overcast